Track COSMOS 2485 (GLONASS) now! COSMOS 2485 (GLONASS) is classified as:
1 39155U 13019A 25198.32932341 -.00000019 00000-0 00000+0 0 9999 2 39155 65.2314 84.8580 0022346 231.8211 128.0400 2.13104569 95149